| time (UTC) | temp C | wind direction | speed KPH | gust KPH | rain 1hr cm | rain 24hr cm | rain mn cm | humidity % | barometer mb |
| 20260510000013 | 26 | 129 | 4.8 | 14.5 | 0.00 | 0.03 | 0.03 | 44 | 1007.4 |
| 20260509235505 | 26 | 88 | 3.2 | 12.9 | 0.00 | 0.03 | 0.03 | 43 | 1007.5 |
| 20260509235009 | 27 | 120 | 3.2 | 12.9 | 0.00 | 0.03 | 0.03 | 43 | 1007.4 |
| 20260509234519 | 27 | 163 | 3.2 | 12.9 | 0.00 | 0.03 | 0.03 | 41 | 1007.5 |
| 20260509234011 | 27 | 48 | 4.8 | 12.9 | 0.00 | 0.03 | 0.03 | 40 | 1007.7 |
| 20260509233509 | 27 | 126 | 3.2 | 16.1 | 0.00 | 0.03 | 0.03 | 41 | 1007.5 |
| 20260509233022 | 27 | 50 | 4.8 | 16.1 | 0.00 | 0.03 | 0.03 | 40 | 1007.5 |
| 20260509232508 | 28 | 5 | 6.4 | 16.1 | 0.00 | 0.03 | 0.03 | 39 | 1007.6 |
| 20260509232011 | 28 | 109 | 4.8 | 16.1 | 0.00 | 0.23 | 0.03 | 39 | 1007.6 |
| 20260509231526 | 28 | 113 | 4.8 | 14.5 | 0.00 | 0.48 | 0.03 | 40 | 1007.6 |
| 20260509231014 | 28 | 171 | 6.4 | 14.5 | 0.00 | 0.48 | 0.03 | 40 | 1007.7 |
| 20260509230510 | 28 | 118 | 8.0 | 14.5 | 0.00 | 0.48 | 0.03 | 40 | 1007.7 |
| 20260509230026 | 28 | 125 | 6.4 | 16.1 | 0.00 | 0.48 | 0.03 | 39 | 1007.8 |
| 20260509225504 | 28 | 188 | 3.2 | 16.1 | 0.00 | 0.48 | 0.03 | 41 | 1007.8 |
| 20260509225006 | 28 | 128 | 6.4 | 16.1 | 0.00 | 0.53 | 0.03 | 39 | 1008.0 |
| 20260509224513 | 28 | 83 | 8.0 | 16.1 | 0.00 | 0.53 | 0.03 | 39 | 1008.0 |
| 20260509224007 | 28 | 88 | 3.2 | 14.5 | 0.00 | 0.53 | 0.03 | 38 | 1008.1 |
| 20260509223510 | 29 | 182 | 6.4 | 14.5 | 0.00 | 0.53 | 0.03 | 37 | 1008.1 |
| 20260509223024 | 29 | 186 | 8.0 | 16.1 | 0.00 | 0.53 | 0.03 | 36 | 1008.2 |
| 20260509222503 | 28 | 144 | 6.4 | 16.1 | 0.00 | 0.53 | 0.03 | 38 | 1008.2 |
| 20260509222006 | 29 | 217 | 8.0 | 14.5 | 0.00 | 0.53 | 0.03 | 37 | 1008.3 |
| 20260509221504 | 28 | 115 | 4.8 | 12.9 | 0.00 | 0.53 | 0.03 | 38 | 1008.4 |
| 20260509221005 | 28 | 78 | 3.2 | 11.3 | 0.00 | 0.53 | 0.03 | 39 | 1008.3 |
| 20260509220501 | 28 | 118 | 1.6 | 14.5 | 0.00 | 0.53 | 0.03 | 38 | 1008.4 |
| 20260509220010 | 29 | 142 | 6.4 | 14.5 | 0.00 | 0.53 | 0.03 | 38 | 1008.5 |
| 20260509215503 | 28 | 108 | 3.2 | 14.5 | 0.00 | 0.53 | 0.03 | 38 | 1008.4 |
| 20260509215008 | 28 | 148 | 8.0 | 14.5 | 0.00 | 0.53 | 0.03 | 37 | 1008.5 |
| 20260509214514 | 29 | 171 | 4.8 | 12.9 | 0.00 | 0.53 | 0.03 | 39 | 1008.5 |
| 20260509214006 | 29 | 88 | 3.2 | 12.9 | 0.00 | 0.53 | 0.03 | 38 | 1008.5 |
| 20260509213507 | 29 | 165 | 4.8 | 12.9 | 0.00 | 0.53 | 0.03 | 39 | 1008.5 |
| 20260509213027 | 28 | 190 | 3.2 | 12.9 | 0.00 | 0.53 | 0.03 | 38 | 1008.6 |
| 20260509212510 | 28 | 203 | 4.8 | 14.5 | 0.00 | 0.53 | 0.03 | 37 | 1008.6 |
| 20260509212002 | 29 | 206 | 4.8 | 14.5 | 0.00 | 0.53 | 0.03 | 37 | 1008.7 |
| 20260509211503 | 29 | 163 | 6.4 | 12.9 | 0.00 | 0.53 | 0.03 | 37 | 1008.7 |
| 20260509211001 | 29 | 181 | 3.2 | 12.9 | 0.00 | 0.53 | 0.03 | 36 | 1008.7 |
| 20260509210503 | 29 | 134 | 6.4 | 12.9 | 0.00 | 0.53 | 0.03 | 37 | 1008.7 |
| 20260509210006 | 29 | 157 | 3.2 | 12.9 | 0.00 | 0.53 | 0.03 | 37 | 1008.8 |
| 20260509205502 | 28 | 234 | 4.8 | 12.9 | 0.00 | 0.53 | 0.03 | 37 | 1008.8 |
| 20260509205010 | 28 | 203 | 3.2 | 14.5 | 0.00 | 0.53 | 0.03 | 37 | 1008.8 |
| 20260509204514 | 28 | 194 | 3.2 | 14.5 | 0.00 | 0.53 | 0.03 | 36 | 1008.8 |
| 20260509204006 | 28 | 147 | 3.2 | 12.9 | 0.00 | 0.53 | 0.03 | 36 | 1008.9 |
| 20260509203509 | 28 | 200 | 1.6 | 9.7 | 0.00 | 0.53 | 0.03 | 38 | 1008.8 |
| 20260509203028 | 28 | 90 | 1.6 | 11.3 | 0.00 | 0.53 | 0.03 | 37 | 1008.9 |
| 20260509202505 | 28 | 210 | 3.2 | 11.3 | 0.00 | 0.53 | 0.03 | 35 | 1008.9 |
| 20260509202012 | 28 | 153 | 4.8 | 11.3 | 0.00 | 0.53 | 0.03 | 38 | 1008.9 |
| 20260509201522 | 28 | 143 | 1.6 | 14.5 | 0.00 | 0.53 | 0.03 | 38 | 1009.0 |
| 20260509201010 | 28 | 60 | 4.8 | 14.5 | 0.00 | 0.53 | 0.03 | 39 | 1009.1 |
| 20260509200513 | 28 | 36 | 6.4 | 12.9 | 0.00 | 0.53 | 0.03 | 39 | 1009.2 |
| 20260509200003 | 28 | 25 | 4.8 | 17.7 | 0.00 | 0.53 | 0.03 | 39 | 1009.4 |
| 20260509195512 | 28 | 55 | 8.0 | 16.1 | 0.00 | 0.53 | 0.03 | 39 | 1009.6 |
| 20260509195004 | 28 | 90 | 4.8 | 12.9 | 0.00 | 0.53 | 0.03 | 38 | 1009.6 |
| 20260509194506 | 28 | 13 | 1.6 | 6.4 | 0.00 | 0.53 | 0.03 | 40 | 1009.7 |
| 20260509194009 | 28 | 13 | 0.0 | 8.0 | 0.00 | 0.53 | 0.03 | 36 | 1009.7 |
| 20260509193508 | 28 | 22 | 3.2 | 8.0 | 0.00 | 0.53 | 0.03 | 34 | 1009.8 |
| 20260509193024 | 28 | 267 | 1.6 | 8.0 | 0.00 | 0.53 | 0.03 | 39 | 1009.8 |
| 20260509192511 | 27 | 165 | 1.6 | 8.0 | 0.00 | 0.53 | 0.03 | 36 | 1009.8 |
| 20260509192007 | 27 | 214 | 3.2 | 6.4 | 0.00 | 0.53 | 0.03 | 38 | 1009.9 |
| 20260509191525 | 27 | 311 | 3.2 | 9.7 | 0.00 | 0.53 | 0.03 | 37 | 1009.9 |
| 20260509191009 | 27 | 242 | 1.6 | 12.9 | 0.00 | 0.53 | 0.03 | 38 | 1010.0 |
| 20260509190512 | 27 | 188 | 8.0 | 12.9 | 0.00 | 0.53 | 0.03 | 37 | 1010.0 |
| 20260509190028 | 27 | 49 | 1.6 | 8.0 | 0.00 | 0.53 | 0.03 | 38 | 1010.0 |
| 20260509185510 | 27 | 102 | 3.2 | 14.5 | 0.00 | 0.53 | 0.03 | 41 | 1010.1 |
| 20260509185009 | 27 | 84 | 4.8 | 14.5 | 0.00 | 0.53 | 0.03 | 39 | 1010.1 |
| 20260509184517 | 27 | 61 | 3.2 | 16.1 | 0.00 | 0.53 | 0.03 | 40 | 1010.2 |
| 20260509184010 | 27 | 186 | 6.4 | 16.1 | 0.00 | 0.53 | 0.03 | 40 | 1010.4 |
| 20260509183503 | 27 | 222 | 3.2 | 9.7 | 0.00 | 0.53 | 0.03 | 42 | 1010.4 |
| 20260509183008 | 27 | 101 | 1.6 | 11.3 | 0.00 | 0.53 | 0.03 | 42 | 1010.4 |
| 20260509182507 | 27 | 153 | 4.8 | 16.1 | 0.00 | 0.53 | 0.03 | 42 | 1010.4 |
| 20260509182008 | 27 | 96 | 3.2 | 16.1 | 0.00 | 0.53 | 0.03 | 43 | 1010.5 |
| 20260509181517 | 27 | 235 | 1.6 | 9.7 | 0.00 | 0.53 | 0.03 | 39 | 1010.6 |
| 20260509181011 | 27 | 212 | 3.2 | 9.7 | 0.00 | 0.53 | 0.03 | 39 | 1010.7 |
| 20260509180508 | 27 | 212 | 3.2 | 8.0 | 0.00 | 0.53 | 0.03 | 40 | 1010.7 |
| 20260509180020 | 26 | 182 | 0.0 | 8.0 | 0.00 | 0.53 | 0.03 | 42 | 1010.9 |
| 20260509175513 | 26 | 249 | 1.6 | 11.3 | 0.00 | 0.53 | 0.03 | 40 | 1011.0 |
| 20260509175008 | 26 | 163 | 3.2 | 11.3 | 0.00 | 0.53 | 0.03 | 42 | 1011.1 |
| 20260509174524 | 26 | 211 | 6.4 | 11.3 | 0.00 | 0.53 | 0.03 | 43 | 1011.1 |
| 20260509174009 | 26 | 157 | 0.0 | 9.7 | 0.00 | 0.53 | 0.03 | 45 | 1011.2 |
| 20260509173517 | 26 | 225 | 4.8 | 14.5 | 0.00 | 0.53 | 0.03 | 47 | 1011.3 |
| 20260509173008 | 26 | 151 | 8.0 | 14.5 | 0.00 | 0.53 | 0.03 | 47 | 1011.4 |
| 20260509172506 | 26 | 195 | 6.4 | 11.3 | 0.00 | 0.53 | 0.03 | 49 | 1011.5 |
| 20260509172006 | 26 | 18 | 3.2 | 9.7 | 0.00 | 0.53 | 0.03 | 49 | 1011.6 |
| 20260509171526 | 26 | 117 | 3.2 | 11.3 | 0.00 | 0.53 | 0.03 | 47 | 1011.6 |
| 20260509171010 | 25 | 145 | 4.8 | 11.3 | 0.00 | 0.53 | 0.03 | 50 | 1011.7 |
| 20260509170507 | 25 | 207 | 1.6 | 12.9 | 0.00 | 0.53 | 0.03 | 52 | 1011.7 |
| 20260509170023 | 25 | 180 | 3.2 | 12.9 | 0.00 | 0.53 | 0.03 | 55 | 1011.8 |
| 20260509165508 | 25 | 185 | 6.4 | 14.5 | 0.00 | 0.53 | 0.03 | 55 | 1011.8 |
| 20260509165010 | 25 | 192 | 6.4 | 14.5 | 0.00 | 0.53 | 0.03 | 57 | 1011.9 |
| 20260509164521 | 25 | 180 | 4.8 | 12.9 | 0.00 | 0.53 | 0.03 | 59 | 1011.9 |
| 20260509164011 | 24 | 163 | 4.8 | 12.9 | 0.00 | 0.53 | 0.03 | 54 | 1011.9 |
| 20260509163510 | 24 | 178 | 6.4 | 14.5 | 0.00 | 0.53 | 0.03 | 58 | 1012.0 |
| 20260509163037 | 24 | 228 | 8.0 | 14.5 | 0.00 | 0.53 | 0.03 | 57 | 1011.9 |
| 20260509162510 | 24 | 186 | 6.4 | 12.9 | 0.00 | 0.53 | 0.03 | 58 | 1011.9 |
| 20260509162010 | 24 | 180 | 3.2 | 11.3 | 0.00 | 0.53 | 0.03 | 61 | 1011.9 |
| 20260509161526 | 24 | 205 | 3.2 | 12.9 | 0.00 | 0.53 | 0.03 | 64 | 1011.9 |
| 20260509161003 | 23 | 176 | 3.2 | 12.9 | 0.00 | 0.53 | 0.03 | 62 | 1011.8 |
| 20260509160507 | 23 | 136 | 4.8 | 12.9 | 0.00 | 0.53 | 0.03 | 64 | 1011.8 |
| 20260509160014 | 23 | 189 | 6.4 | 12.9 | 0.00 | 0.53 | 0.03 | 62 | 1011.8 |
| 20260509155506 | 23 | 191 | 4.8 | 12.9 | 0.00 | 0.53 | 0.03 | 65 | 1011.9 |
| 20260509155007 | 23 | 197 | 4.8 | 12.9 | 0.00 | 0.53 | 0.03 | 67 | 1011.8 |
| 20260509154524 | 22 | 126 | 4.8 | 14.5 | 0.00 | 0.53 | 0.03 | 66 | 1011.9 |
| 20260509154012 | 22 | 159 | 6.4 | 16.1 | 0.00 | 0.53 | 0.03 | 67 | 1011.9 |
| 20260509153507 | 22 | 207 | 6.4 | 16.1 | 0.00 | 0.53 | 0.03 | 67 | 1011.8 |
| 20260509153039 | 23 | 199 | 8.0 | 16.1 | 0.03 | 0.53 | 0.03 | 69 | 1011.8 |
| 20260509152510 | 23 | 120 | 3.2 | 12.9 | 0.03 | 0.53 | 0.03 | 66 | 1011.8 |
| 20260509152012 | 23 | 132 | 3.2 | 12.9 | 0.03 | 0.53 | 0.03 | 66 | 1011.8 |
| 20260509151528 | 23 | 175 | 4.8 | 14.5 | 0.03 | 0.53 | 0.03 | 67 | 1011.9 |
| 20260509151006 | 22 | 128 | 6.4 | 14.5 | 0.03 | 0.53 | 0.03 | 66 | 1012.0 |
| 20260509150510 | 22 | 166 | 4.8 | 11.3 | 0.03 | 0.53 | 0.03 | 65 | 1012.0 |
| 20260509150026 | 22 | 169 | 1.6 | 8.0 | 0.03 | 0.53 | 0.03 | 69 | 1011.9 |
| 20260509145504 | 22 | 161 | 3.2 | 11.3 | 0.03 | 0.53 | 0.03 | 71 | 1011.7 |
| 20260509145008 | 21 | 135 | 3.2 | 11.3 | 0.03 | 0.53 | 0.03 | 74 | 1011.5 |
| 20260509144519 | 21 | 107 | 3.2 | 14.5 | 0.03 | 0.53 | 0.03 | 77 | 1011.4 |
| 20260509144010 | 20 | 50 | 4.8 | 16.1 | 0.03 | 0.53 | 0.03 | 79 | 1011.4 |
| 20260509143505 | 20 | 69 | 6.4 | 16.1 | 0.03 | 0.53 | 0.03 | 80 | 1011.3 |
| 20260509143020 | 20 | 50 | 6.4 | 12.9 | 0.00 | 0.51 | 0.00 | 82 | 1011.3 |
| 20260509142505 | 20 | 73 | 3.2 | 9.7 | 0.00 | 0.51 | 0.00 | 84 | 1011.4 |
| 20260509142009 | 19 | 68 | 3.2 | 9.7 | 0.00 | 0.51 | 0.00 | 83 | 1011.4 |
| 20260509141526 | 19 | 40 | 4.8 | 12.9 | 0.00 | 0.51 | 0.00 | 83 | 1011.3 |
| 20260509141009 | 19 | 49 | 8.0 | 12.9 | 0.00 | 0.51 | 0.00 | 84 | 1011.3 |
| 20260509140509 | 19 | 50 | 4.8 | 12.9 | 0.00 | 0.51 | 0.00 | 87 | 1011.3 |
| 20260509140025 | 18 | 34 | 4.8 | 9.7 | 0.00 | 0.51 | 0.00 | 88 | 1011.4 |
| 20260509135509 | 18 | 61 | 4.8 | 8.0 | 0.00 | 0.51 | 0.00 | 88 | 1011.3 |
| 20260509135011 | 18 | 48 | 3.2 | 6.4 | 0.00 | 0.51 | 0.00 | 89 | 1011.4 |
| 20260509134526 | 18 | 49 | 3.2 | 4.8 | 0.00 | 0.51 | 0.00 | 89 | 1011.3 |
| 20260509134007 | 18 | 180 | 0.0 | 3.2 | 0.00 | 0.51 | 0.00 | 90 | 1011.4 |
| 20260509133507 | 17 | 180 | 0.0 | 3.2 | 0.00 | 0.51 | 0.00 | 91 | 1011.4 |
| 20260509133016 | 17 | 231 | 0.0 | 3.2 | 0.00 | 0.51 | 0.00 | 91 | 1011.3 |
| 20260509132504 | 17 | 231 | 0.0 | 3.2 | 0.00 | 0.51 | 0.00 | 92 | 1011.2 |
| 20260509132007 | 17 | 231 | 0.0 | 1.6 | 0.00 | 0.51 | 0.00 | 92 | 1011.2 |
| 20260509131503 | 16 | 231 | 0.0 | 1.6 | 0.00 | 0.51 | 0.00 | 92 | 1011.2 |
| 20260509131001 | 16 | 231 | 0.0 | 1.6 | 0.00 | 0.51 | 0.00 | 92 | 1011.0 |
| 20260509130503 | 16 | 231 | 0.0 | 1.6 | 0.00 | 0.51 | 0.00 | 93 | 1011.0 |
| 20260509130028 | 15 | 231 | 0.0 | 1.6 | 0.00 | 0.51 | 0.00 | 93 | 1010.9 |
| 20260509125503 | 15 | 231 | 0.0 | 3.2 | 0.00 | 0.51 | 0.00 | 93 | 1010.9 |
| 20260509125008 | 15 | 231 | 0.0 | 3.2 | 0.00 | 0.51 | 0.00 | 92 | 1010.8 |
| 20260509124509 | 15 | 231 | 0.0 | 3.2 | 0.00 | 0.51 | 0.00 | 93 | 1010.8 |
| 20260509124006 | 14 | 231 | 0.0 | 1.6 | 0.00 | 0.51 | 0.00 | 93 | 1010.7 |
| 20260509123504 | 14 | 360 | 0.0 | 1.6 | 0.00 | 0.51 | 0.00 | 93 | 1010.6 |
| 20260509123017 | 13 | 360 | 0.0 | 1.6 | 0.00 | 0.51 | 0.00 | 93 | 1010.6 |
| 20260509122509 | 13 | 360 | 0.0 | 1.6 | 0.00 | 0.51 | 0.00 | 92 | 1010.6 |
| 20260509122007 | 13 | 360 | 0.0 | 1.6 | 0.00 | 0.51 | 0.00 | 93 | 1010.5 |
| 20260509121513 | 13 | 360 | 0.0 | 3.2 | 0.00 | 0.51 | 0.00 | 92 | 1010.6 |
| 20260509121007 | 13 | 360 | 0.0 | 3.2 | 0.00 | 0.51 | 0.00 | 92 | 1010.6 |
| 20260509120504 | 13 | 360 | 0.0 | 3.2 | 0.00 | 0.51 | 0.00 | 92 | 1010.5 |
| 20260509120003 | 13 | 360 | 1.6 | 3.2 | 0.00 | 0.51 | 0.00 | 92 | 1010.5 |
| 20260509115505 | 12 | 360 | 0.0 | 1.6 | 0.00 | 0.51 | 0.00 | 92 | 1010.4 |
| 20260509115006 | 12 | 360 | 0.0 | 1.6 | 0.00 | 0.51 | 0.00 | 92 | 1010.4 |
| 20260509114506 | 12 | 360 | 0.0 | 0.0 | 0.00 | 0.51 | 0.00 | 92 | 1010.2 |
| 20260509114006 | 12 | 360 | 0.0 | 1.6 | 0.00 | 0.51 | 0.00 | 92 | 1010.1 |
| 20260509113509 | 12 | 360 | 0.0 | 1.6 | 0.00 | 0.51 | 0.00 | 92 | 1010.1 |
| 20260509113012 | 12 | 360 | 0.0 | 1.6 | 0.00 | 0.51 | 0.00 | 92 | 1010.1 |
| 20260509112507 | 12 | 360 | 0.0 | 1.6 | 0.00 | 0.51 | 0.00 | 92 | 1010.0 |
| 20260509112009 | 12 | 360 | 0.0 | 1.6 | 0.00 | 0.51 | 0.00 | 92 | 1010.0 |
| 20260509111514 | 12 | 360 | 0.0 | 3.2 | 0.00 | 0.51 | 0.00 | 92 | 1009.9 |
| 20260509111012 | 12 | 360 | 0.0 | 3.2 | 0.00 | 0.51 | 0.00 | 92 | 1009.8 |
| 20260509110505 | 12 | 360 | 1.6 | 3.2 | 0.00 | 0.51 | 0.00 | 92 | 1009.9 |
| 20260509110016 | 12 | 360 | 0.0 | 3.2 | 0.00 | 0.51 | 0.00 | 92 | 1009.9 |
| 20260509105508 | 12 | 360 | 0.0 | 3.2 | 0.00 | 0.51 | 0.00 | 92 | 1009.8 |
| 20260509105003 | 12 | 360 | 0.0 | 4.8 | 0.00 | 0.51 | 0.00 | 92 | 1009.7 |
| 20260509104509 | 12 | 360 | 1.6 | 4.8 | 0.00 | 0.51 | 0.00 | 92 | 1009.7 |
| 20260509104003 | 12 | 360 | 1.6 | 4.8 | 0.00 | 0.51 | 0.00 | 92 | 1009.7 |
| 20260509103502 | 12 | 360 | 0.0 | 1.6 | 0.00 | 0.51 | 0.00 | 92 | 1009.7 |
| 20260509103007 | 12 | 360 | 0.0 | 1.6 | 0.00 | 0.51 | 0.00 | 92 | 1009.8 |
| 20260509102509 | 12 | 360 | 0.0 | 1.6 | 0.00 | 0.51 | 0.00 | 91 | 1009.9 |
| 20260509102007 | 13 | 360 | 0.0 | 0.0 | 0.00 | 0.51 | 0.00 | 91 | 1009.9 |
| 20260509101523 | 13 | 360 | 0.0 | 0.0 | 0.00 | 0.51 | 0.00 | 91 | 1010.0 |
| 20260509101008 | 13 | 360 | 0.0 | 0.0 | 0.00 | 0.51 | 0.00 | 91 | 1010.1 |
| 20260509100507 | 13 | 360 | 0.0 | 0.0 | 0.00 | 0.51 | 0.00 | 92 | 1010.3 |
| 20260509100025 | 13 | 360 | 0.0 | 0.0 | 0.00 | 0.51 | 0.00 | 92 | 1010.4 |
| 20260509095509 | 13 | 360 | 0.0 | 1.6 | 0.00 | 0.51 | 0.00 | 91 | 1010.4 |
| 20260509095007 | 13 | 360 | 0.0 | 3.2 | 0.00 | 0.51 | 0.00 | 91 | 1010.5 |
| 20260509094520 | 13 | 360 | 0.0 | 4.8 | 0.00 | 0.51 | 0.00 | 91 | 1010.4 |
| 20260509094007 | 13 | 360 | 1.6 | 4.8 | 0.00 | 0.51 | 0.00 | 92 | 1010.4 |
| 20260509093508 | 13 | 360 | 0.0 | 3.2 | 0.00 | 0.51 | 0.00 | 91 | 1010.4 |
| 20260509093024 | 13 | 360 | 0.0 | 1.6 | 0.00 | 0.51 | 0.00 | 91 | 1010.4 |
| 20260509092507 | 13 | 360 | 0.0 | 3.2 | 0.00 | 0.51 | 0.00 | 91 | 1010.4 |
| 20260509092006 | 13 | 360 | 0.0 | 3.2 | 0.00 | 0.51 | 0.00 | 91 | 1010.5 |
| 20260509091512 | 13 | 360 | 0.0 | 1.6 | 0.00 | 0.51 | 0.00 | 91 | 1010.4 |
| 20260509091007 | 13 | 360 | 0.0 | 0.0 | 0.00 | 0.51 | 0.00 | 91 | 1010.3 |
| 20260509090510 | 13 | 360 | 0.0 | 0.0 | 0.00 | 0.51 | 0.00 | 91 | 1010.3 |
| 20260509090027 | 13 | 360 | 0.0 | 3.2 | 0.00 | 0.51 | 0.00 | 91 | 1010.4 |
| 20260509085508 | 14 | 360 | 0.0 | 3.2 | 0.00 | 0.51 | 0.00 | 91 | 1010.3 |
| 20260509085009 | 14 | 360 | 0.0 | 1.6 | 0.00 | 0.51 | 0.00 | 91 | 1010.3 |
| 20260509084521 | 14 | 360 | 0.0 | 0.0 | 0.00 | 0.51 | 0.00 | 91 | 1010.4 |
| 20260509084012 | 14 | 360 | 0.0 | 0.0 | 0.00 | 0.51 | 0.00 | 91 | 1010.4 |
| 20260509083509 | 14 | 360 | 0.0 | 0.0 | 0.00 | 0.51 | 0.00 | 91 | 1010.4 |
| 20260509083034 | 14 | 360 | 0.0 | 0.0 | 0.00 | 0.51 | 0.00 | 91 | 1010.5 |
| 20260509082514 | 14 | 360 | 0.0 | 0.0 | 0.00 | 0.51 | 0.00 | 91 | 1010.4 |
| 20260509082007 | 14 | 360 | 0.0 | 0.0 | 0.00 | 0.51 | 0.00 | 90 | 1010.4 |
| 20260509081524 | 14 | 360 | 0.0 | 0.0 | 0.00 | 0.51 | 0.00 | 91 | 1010.5 |
| 20260509081005 | 15 | 360 | 0.0 | 3.2 | 0.00 | 0.51 | 0.00 | 90 | 1010.6 |
| 20260509080507 | 15 | 360 | 0.0 | 3.2 | 0.00 | 0.51 | 0.00 | 90 | 1010.7 |
| 20260509080015 | 15 | 360 | 0.0 | 0.0 | 0.00 | 0.51 | 0.00 | 90 | 1010.8 |
| 20260509075507 | 15 | 360 | 0.0 | 1.6 | 0.00 | 0.51 | 0.00 | 90 | 1010.8 |
| 20260509075009 | 15 | 360 | 0.0 | 4.8 | 0.00 | 0.51 | 0.00 | 90 | 1010.8 |
| 20260509074524 | 15 | 360 | 0.0 | 4.8 | 0.00 | 0.51 | 0.00 | 90 | 1010.7 |
| 20260509074011 | 15 | 360 | 0.0 | 3.2 | 0.00 | 0.51 | 0.00 | 90 | 1010.7 |
| 20260509073508 | 15 | 360 | 0.0 | 0.0 | 0.00 | 0.51 | 0.00 | 90 | 1010.7 |
| 20260509073029 | 15 | 360 | 0.0 | 1.6 | 0.00 | 0.51 | 0.00 | 90 | 1010.7 |
| 20260509072509 | 15 | 360 | 0.0 | 1.6 | 0.00 | 0.51 | 0.00 | 90 | 1010.8 |
| 20260509072009 | 15 | 360 | 0.0 | 3.2 | 0.00 | 0.51 | 0.00 | 90 | 1010.8 |
| 20260509071530 | 15 | 360 | 0.0 | 3.2 | 0.00 | 0.51 | 0.00 | 90 | 1010.9 |
| 20260509071011 | 15 | 360 | 0.0 | 3.2 | 0.00 | 0.51 | 0.00 | 90 | 1010.9 |
| 20260509070509 | 15 | 360 | 0.0 | 3.2 | 0.00 | 0.51 | 0.00 | 90 | 1010.9 |
| 20260509070025 | 15 | 360 | 0.0 | 1.6 | 0.00 | 0.51 | 0.00 | 90 | 1010.9 |
| 20260509065505 | 15 | 360 | 0.0 | 1.6 | 0.00 | 0.51 | 0.00 | 89 | 1010.9 |
| 20260509065011 | 15 | 360 | 0.0 | 1.6 | 0.00 | 0.51 | 0.00 | 89 | 1011.0 |
| 20260509064516 | 16 | 360 | 0.0 | 1.6 | 0.00 | 0.51 | 0.00 | 89 | 1011.0 |
| 20260509064010 | 16 | 360 | 0.0 | 1.6 | 0.00 | 0.51 | 0.00 | 89 | 1011.0 |
| 20260509063511 | 16 | 360 | 0.0 | 0.0 | 0.00 | 0.51 | 0.00 | 89 | 1011.1 |
| 20260509063023 | 16 | 360 | 0.0 | 0.0 | 0.00 | 0.51 | 0.00 | 89 | 1011.2 |
| 20260509062510 | 16 | 360 | 0.0 | 0.0 | 0.00 | 0.51 | 0.00 | 89 | 1011.3 |
| 20260509062010 | 16 | 360 | 0.0 | 1.6 | 0.00 | 0.51 | 0.00 | 89 | 1011.2 |
| 20260509061525 | 16 | 360 | 0.0 | 3.2 | 0.00 | 0.51 | 0.00 | 89 | 1011.2 |
| 20260509061012 | 16 | 360 | 0.0 | 3.2 | 0.00 | 0.51 | 0.00 | 89 | 1011.3 |
| 20260509060507 | 16 | 360 | 0.0 | 3.2 | 0.00 | 0.51 | 0.00 | 89 | 1011.3 |
| 20260509060024 | 16 | 360 | 0.0 | 3.2 | 0.00 | 0.51 | 0.00 | 89 | 1011.4 |
| 20260509055511 | 16 | 360 | 0.0 | 3.2 | 0.00 | 0.51 | 0.00 | 89 | 1011.5 |
| 20260509055007 | 16 | 360 | 0.0 | 1.6 | 0.00 | 0.51 | 0.00 | 89 | 1011.5 |
| 20260509054530 | 16 | 360 | 0.0 | 1.6 | 0.00 | 0.51 | 0.00 | 89 | 1011.4 |
| 20260509054006 | 16 | 360 | 0.0 | 4.8 | 0.00 | 0.51 | 0.00 | 89 | 1011.4 |
| 20260509053506 | 16 | 360 | 0.0 | 9.7 | 0.00 | 0.51 | 0.00 | 89 | 1011.3 |
| 20260509053018 | 16 | 360 | 3.2 | 9.7 | 0.00 | 0.51 | 0.00 | 90 | 1011.2 |
| 20260509052507 | 16 | 360 | 4.8 | 9.7 | 0.00 | 0.51 | 0.00 | 90 | 1011.2 |
| 20260509052008 | 16 | 360 | 3.2 | 6.4 | 0.00 | 0.51 | 0.00 | 90 | 1011.1 |
| 20260509051525 | 16 | 360 | 3.2 | 6.4 | 0.00 | 0.51 | 0.00 | 90 | 1011.0 |
| 20260509051009 | 16 | 360 | 3.2 | 8.0 | 0.00 | 0.51 | 0.00 | 90 | 1011.0 |
| 20260509050511 | 16 | 360 | 4.8 | 8.0 | 0.00 | 0.51 | 0.00 | 90 | 1011.0 |
| 20260509050026 | 16 | 360 | 4.8 | 14.5 | 0.00 | 0.51 | 0.00 | 90 | 1010.9 |
| 20260509045519 | 16 | 360 | 6.4 | 16.1 | 0.00 | 0.51 | 0.51 | 90 | 1010.8 |
| 20260509045010 | 16 | 360 | 4.8 | 16.1 | 0.00 | 0.51 | 0.51 | 90 | 1010.6 |
| 20260509044528 | 16 | 360 | 9.7 | 16.1 | 0.00 | 0.51 | 0.51 | 89 | 1010.6 |
| 20260509044013 | 16 | 360 | 3.2 | 6.4 | 0.00 | 0.51 | 0.51 | 89 | 1010.4 |
| 20260509043509 | 16 | 360 | 1.6 | 4.8 | 0.00 | 0.51 | 0.51 | 89 | 1010.4 |
| 20260509043030 | 16 | 360 | 1.6 | 4.8 | 0.00 | 0.51 | 0.51 | 89 | 1010.4 |
| 20260509042507 | 16 | 360 | 1.6 | 3.2 | 0.00 | 0.51 | 0.51 | 88 | 1010.4 |
| 20260509042010 | 16 | 360 | 0.0 | 3.2 | 0.00 | 0.51 | 0.51 | 88 | 1010.2 |
| 20260509041527 | 16 | 360 | 1.6 | 4.8 | 0.00 | 0.51 | 0.51 | 88 | 1010.1 |
| 20260509041011 | 16 | 360 | 0.0 | 4.8 | 0.00 | 0.51 | 0.51 | 88 | 1010.1 |
| 20260509040502 | 17 | 360 | 0.0 | 3.2 | 0.00 | 0.51 | 0.51 | 87 | 1010.1 |
| 20260509040029 | 17 | 360 | 0.0 | 1.6 | 0.00 | 0.51 | 0.51 | 88 | 1010.3 |
| 20260509035509 | 17 | 360 | 0.0 | 3.2 | 0.00 | 0.51 | 0.51 | 88 | 1010.1 |
| 20260509035004 | 17 | 360 | 0.0 | 3.2 | 0.00 | 0.51 | 0.51 | 88 | 1010.2 |
| 20260509034508 | 17 | 360 | 0.0 | 3.2 | 0.00 | 0.51 | 0.51 | 87 | 1010.2 |
| 20260509034012 | 17 | 360 | 0.0 | 3.2 | 0.00 | 0.51 | 0.51 | 87 | 1010.1 |
| 20260509033503 | 17 | 360 | 1.6 | 3.2 | 0.00 | 0.51 | 0.51 | 87 | 1010.1 |
| 20260509033010 | 17 | 360 | 0.0 | 0.0 | 0.00 | 0.51 | 0.51 | 86 | 1009.9 |
| 20260509032507 | 17 | 360 | 0.0 | 1.6 | 0.00 | 0.51 | 0.51 | 87 | 1009.9 |
| 20260509032008 | 17 | 360 | 0.0 | 3.2 | 0.00 | 0.51 | 0.51 | 87 | 1009.7 |
| 20260509031515 | 17 | 360 | 0.0 | 4.8 | 0.00 | 0.51 | 0.51 | 86 | 1009.7 |
| 20260509031008 | 17 | 360 | 1.6 | 4.8 | 0.00 | 0.51 | 0.51 | 87 | 1009.6 |
| 20260509030514 | 17 | 360 | 0.0 | 3.2 | 0.00 | 0.51 | 0.51 | 86 | 1009.6 |
| 20260509030032 | 17 | 360 | 0.0 | 3.2 | 0.00 | 0.51 | 0.51 | 85 | 1009.5 |
| 20260509025507 | 17 | 360 | 0.0 | 3.2 | 0.00 | 0.51 | 0.51 | 85 | 1009.3 |
| 20260509025009 | 17 | 360 | 0.0 | 3.2 | 0.00 | 0.51 | 0.51 | 85 | 1009.2 |
| 20260509024507 | 18 | 360 | 0.0 | 3.2 | 0.00 | 0.51 | 0.51 | 84 | 1009.2 |
| 20260509024003 | 18 | 360 | 0.0 | 3.2 | 0.00 | 0.51 | 0.51 | 84 | 1009.1 |
| 20260509023504 | 18 | 360 | 0.0 | 4.8 | 0.00 | 0.51 | 0.51 | 83 | 1008.9 |
| 20260509023008 | 18 | 360 | 0.0 | 4.8 | 0.00 | 0.51 | 0.51 | 83 | 1008.9 |
| 20260509022504 | 18 | 360 | 1.6 | 4.8 | 0.00 | 0.51 | 0.51 | 82 | 1008.8 |
| 20260509022007 | 19 | 360 | 0.0 | 3.2 | 0.00 | 0.51 | 0.51 | 81 | 1008.8 |
| 20260509021514 | 19 | 360 | 0.0 | 3.2 | 0.00 | 0.51 | 0.51 | 81 | 1008.9 |
| 20260509021004 | 19 | 360 | 0.0 | 4.8 | 0.00 | 0.51 | 0.51 | 81 | 1008.9 |
| 20260509020507 | 19 | 360 | 1.6 | 6.4 | 0.00 | 0.51 | 0.51 | 81 | 1008.8 |
| 20260509020018 | 19 | 360 | 1.6 | 6.4 | 0.00 | 0.51 | 0.51 | 81 | 1008.8 |
| 20260509015507 | 18 | 360 | 3.2 | 6.4 | 0.00 | 0.51 | 0.51 | 82 | 1008.8 |
| 20260509015011 | 18 | 360 | 1.6 | 6.4 | 0.00 | 0.51 | 0.51 | 83 | 1008.8 |
| 20260509014522 | 18 | 360 | 1.6 | 9.7 | 0.00 | 0.51 | 0.51 | 84 | 1008.8 |
| 20260509014010 | 18 | 360 | 1.6 | 9.7 | 0.00 | 0.51 | 0.51 | 84 | 1008.6 |
| 20260509013510 | 18 | 360 | 4.8 | 9.7 | 0.00 | 0.51 | 0.51 | 84 | 1008.5 |
| 20260509013028 | 18 | 360 | 1.6 | 3.2 | 0.00 | 0.51 | 0.51 | 84 | 1008.3 |
| 20260509012507 | 18 | 360 | 1.6 | 3.2 | 0.00 | 0.51 | 0.51 | 84 | 1008.1 |
| 20260509012007 | 18 | 360 | 0.0 | 3.2 | 0.00 | 0.51 | 0.51 | 83 | 1008.1 |
| 20260509011511 | 18 | 360 | 0.0 | 6.4 | 0.00 | 0.51 | 0.51 | 83 | 1008.0 |
| 20260509011004 | 18 | 360 | 0.0 | 8.0 | 0.00 | 0.51 | 0.51 | 83 | 1008.0 |
| 20260509010506 | 19 | 360 | 3.2 | 8.0 | 0.00 | 0.51 | 0.51 | 82 | 1007.9 |
| 20260509010014 | 19 | 360 | 4.8 | 8.0 | 0.00 | 0.51 | 0.51 | 82 | 1007.8 |
| 20260509005507 | 19 | 360 | 1.6 | 3.2 | 0.00 | 0.51 | 0.51 | 81 | 1007.7 |
| 20260509005006 | 19 | 360 | 0.0 | 3.2 | 0.00 | 0.51 | 0.51 | 82 | 1007.7 |
| 20260509004525 | 18 | 360 | 0.0 | 6.4 | 0.00 | 0.51 | 0.51 | 81 | 1007.6 |
| 20260509004008 | 18 | 360 | 1.6 | 8.0 | 0.00 | 0.51 | 0.51 | 81 | 1007.4 |
| 20260509003508 | 18 | 360 | 4.8 | 9.7 | 0.00 | 0.51 | 0.51 | 81 | 1007.2 |
| 20260509003026 | 18 | 360 | 3.2 | 12.9 | 0.00 | 0.51 | 0.51 | 81 | 1007.1 |
| 20260509002512 | 19 | 360 | 3.2 | 14.5 | 0.00 | 0.51 | 0.51 | 81 | 1007.0 |
| 20260509002008 | 20 | 360 | 6.4 | 14.5 | 0.20 | 0.51 | 0.51 | 81 | 1006.9 |
| 20260509001511 | 20 | 153 | 1.6 | 4.8 | 0.46 | 0.51 | 0.51 | 83 | 1006.7 |
| 20260509001004 | 20 | 153 | 0.0 | 8.0 | 0.46 | 0.51 | 0.51 | 83 | 1006.4 |
| 20260509000504 | 20 | 153 | 1.6 | 8.0 | 0.46 | 0.51 | 0.51 | 83 | 1006.4 |